| time (UTC) | temp F | wind direction | speed MPH | gust MPH | rain 1hr in | rain 24hr in | rain mn in | humidity % | barometer mb |
| 20260902230736 | 99 | 181 | 1.0 | 2.0 | 0.00 | 0.00 | 0.00 | 36 | 1008.5 |
| 20260902230235 | 100 | 95 | 1.0 | 1.0 | 0.00 | 0.00 | 0.00 | 36 | 1008.6 |
| 20260902225729 | 100 | 130 | 0.0 | 1.0 | 0.00 | 0.00 | 0.00 | 36 | 1008.6 |
| 20260902225225 | 100 | 136 | 2.0 | 2.0 | 0.00 | 0.00 | 0.00 | 35 | 1008.6 |
| 20260902224723 | 100 | 157 | 3.0 | 3.0 | 0.00 | 0.00 | 0.00 | 35 | 1008.9 |
| 20260902224219 | 101 | 123 | 1.0 | 1.0 | 0.00 | 0.00 | 0.00 | 35 | 1008.9 |
| 20260902223715 | 101 | 160 | 1.0 | 2.0 | 0.00 | 0.00 | 0.00 | 34 | 1008.8 |
| 20260902223214 | 101 | 199 | 2.0 | 3.0 | 0.00 | 0.00 | 0.00 | 34 | 1008.5 |
| 20260902222713 | 100 | 115 | 1.0 | 1.0 | 0.00 | 0.00 | 0.00 | 34 | 1008.8 |
| 20260902222213 | 101 | 84 | 1.0 | 2.0 | 0.00 | 0.00 | 0.00 | 33 | 1008.7 |
| 20260902221707 | 101 | 212 | 3.0 | 3.0 | 0.00 | 0.00 | 0.00 | 33 | 1008.6 |
| 20260902221206 | 101 | 189 | 3.0 | 3.0 | 0.00 | 0.00 | 0.00 | 33 | 1008.9 |
| 20260902220702 | 102 | 332 | 3.0 | 5.0 | 0.00 | 0.00 | 0.00 | 31 | 1008.5 |
| 20260902220203 | 103 | 119 | 1.0 | 1.0 | 0.00 | 0.00 | 0.00 | 31 | 1008.5 |
| 20260902215658 | 102 | 170 | 2.0 | 2.0 | 0.00 | 0.00 | 0.00 | 31 | 1009.0 |
| 20260902215153 | 102 | 146 | 2.0 | 2.0 | 0.00 | 0.00 | 0.00 | 32 | 1008.8 |
| 20260902214648 | 102 | 0 | 3.0 | 5.0 | 0.00 | 0.00 | 0.00 | 32 | 1008.8 |
| 20260902214148 | 103 | 93 | 2.0 | 2.0 | 0.00 | 0.00 | 0.00 | 31 | 1009.1 |
| 20260902213643 | 102 | 121 | 2.0 | 2.0 | 0.00 | 0.00 | 0.00 | 32 | 1008.8 |
| 20260902213143 | 101 | 130 | 2.0 | 3.0 | 0.00 | 0.00 | 0.00 | 32 | 1009.0 |
| 20260902212638 | 101 | 217 | 3.0 | 5.0 | 0.00 | 0.00 | 0.00 | 33 | 1009.1 |
| 20260902212134 | 98 | 51 | 1.0 | 2.0 | 0.00 | 0.00 | 0.00 | 36 | 1009.0 |
| 20260902211630 | 101 | 74 | 3.0 | 3.0 | 0.00 | 0.00 | 0.00 | 35 | 1009.3 |
| 20260902211125 | 101 | 206 | 3.0 | 3.0 | 0.00 | 0.00 | 0.00 | 34 | 1009.0 |
| 20260902210625 | 102 | 153 | 2.0 | 2.0 | 0.00 | 0.00 | 0.00 | 34 | 1009.3 |
| 20260902210120 | 101 | 85 | 2.0 | 3.0 | 0.00 | 0.00 | 0.00 | 35 | 1009.1 |
| 20260902205619 | 100 | 142 | 1.0 | 1.0 | 0.00 | 0.00 | 0.00 | 35 | 1009.3 |
| 20260902205114 | 101 | 70 | 3.0 | 5.0 | 0.00 | 0.00 | 0.00 | 34 | 1009.2 |
| 20260902204609 | 99 | 166 | 1.0 | 1.0 | 0.00 | 0.00 | 0.00 | 37 | 1009.2 |
| 20260902204103 | 98 | 74 | 2.0 | 2.0 | 0.00 | 0.00 | 0.00 | 38 | 1009.5 |
| 20260902203559 | 97 | 108 | 0.0 | 1.0 | 0.00 | 0.00 | 0.00 | 38 | 1009.5 |
| 20260902203058 | 99 | 131 | 1.0 | 1.0 | 0.00 | 0.00 | 0.00 | 36 | 1009.8 |
| 20260902202554 | 100 | 116 | 2.0 | 2.0 | 0.00 | 0.00 | 0.00 | 35 | 1009.6 |
| 20260902202050 | 100 | 55 | 1.0 | 3.0 | 0.00 | 0.00 | 0.00 | 35 | 1009.7 |
| 20260902201546 | 98 | 142 | 1.0 | 1.0 | 0.00 | 0.00 | 0.00 | 37 | 1009.6 |
| 20260902201044 | 98 | 111 | 1.0 | 2.0 | 0.00 | 0.00 | 0.00 | 37 | 1009.7 |
| 20260902200540 | 100 | 201 | 3.0 | 3.0 | 0.00 | 0.00 | 0.00 | 34 | 1009.8 |
| 20260902200031 | 101 | 156 | 3.0 | 3.0 | 0.00 | 0.00 | 0.00 | 35 | 1010.0 |
| 20260902195526 | 102 | 276 | 4.0 | 6.0 | 0.00 | 0.00 | 0.00 | 36 | 1010.0 |
| 20260902195024 | 102 | 142 | 1.0 | 2.0 | 0.00 | 0.00 | 0.00 | 35 | 1010.0 |
| 20260902194524 | 102 | 144 | 1.0 | 1.0 | 0.00 | 0.00 | 0.00 | 34 | 1009.9 |
| 20260902194019 | 101 | 159 | 2.0 | 3.0 | 0.00 | 0.00 | 0.00 | 37 | 1010.2 |
| 20260902193515 | 101 | 158 | 1.0 | 2.0 | 0.00 | 0.00 | 0.00 | 35 | 1010.2 |
| 20260902193015 | 100 | 163 | 2.0 | 2.0 | 0.00 | 0.00 | 0.00 | 36 | 1010.2 |
| 20260902192513 | 100 | 147 | 1.0 | 2.0 | 0.00 | 0.00 | 0.00 | 36 | 1010.5 |
| 20260902192012 | 100 | 156 | 2.0 | 3.0 | 0.00 | 0.00 | 0.00 | 36 | 1010.6 |
| 20260902191508 | 100 | 39 | 3.0 | 5.0 | 0.00 | 0.00 | 0.00 | 36 | 1010.6 |
| 20260902191002 | 100 | 218 | 4.0 | 6.0 | 0.00 | 0.00 | 0.00 | 36 | 1010.8 |
| 20260902190458 | 100 | 105 | 2.0 | 2.0 | 0.00 | 0.00 | 0.00 | 36 | 1010.8 |
| 20260902185953 | 100 | 132 | 2.0 | 2.0 | 0.00 | 0.00 | 0.00 | 36 | 1010.6 |
| 20260902185449 | 100 | 145 | 2.0 | 2.0 | 0.00 | 0.00 | 0.00 | 35 | 1010.8 |
| 20260902184944 | 100 | 52 | 1.0 | 3.0 | 0.00 | 0.00 | 0.00 | 38 | 1010.8 |
| 20260902184439 | 99 | 127 | 0.0 | 1.0 | 0.00 | 0.00 | 0.00 | 39 | 1010.8 |
| 20260902183935 | 99 | 88 | 0.0 | 1.0 | 0.00 | 0.00 | 0.00 | 38 | 1010.7 |
| 20260902183431 | 99 | 92 | 2.0 | 2.0 | 0.00 | 0.00 | 0.00 | 36 | 1011.0 |
| 20260902182927 | 98 | 114 | 2.0 | 2.0 | 0.00 | 0.00 | 0.00 | 40 | 1011.1 |
| 20260902182423 | 99 | 64 | 2.0 | 2.0 | 0.00 | 0.00 | 0.00 | 41 | 1011.1 |
| 20260902181919 | 100 | 104 | 2.0 | 3.0 | 0.00 | 0.00 | 0.00 | 40 | 1011.2 |
| 20260902181415 | 99 | 124 | 1.0 | 1.0 | 0.00 | 0.00 | 0.00 | 42 | 1011.0 |
| 20260902180909 | 98 | 141 | 1.0 | 1.0 | 0.00 | 0.00 | 0.00 | 43 | 1011.1 |
| 20260902180404 | 96 | 139 | 1.0 | 1.0 | 0.00 | 0.00 | 0.00 | 47 | 1011.4 |
| 20260902175859 | 95 | 125 | 2.0 | 2.0 | 0.00 | 0.00 | 0.00 | 49 | 1011.7 |
| 20260902175354 | 94 | 217 | 2.0 | 3.0 | 0.00 | 0.00 | 0.00 | 49 | 1011.4 |
| 20260902174849 | 95 | 150 | 1.0 | 1.0 | 0.00 | 0.00 | 0.00 | 48 | 1011.8 |
| 20260902174347 | 96 | 144 | 1.0 | 2.0 | 0.00 | 0.00 | 0.00 | 47 | 1011.8 |
| 20260902173837 | 96 | 237 | 4.0 | 5.0 | 0.00 | 0.00 | 0.00 | 47 | 1011.7 |
| 20260902173336 | 94 | 108 | 1.0 | 2.0 | 0.00 | 0.00 | 0.00 | 49 | 1011.7 |
| 20260902172831 | 94 | 316 | 2.0 | 3.0 | 0.00 | 0.00 | 0.00 | 50 | 1011.9 |
| 20260902172330 | 95 | 136 | 0.0 | 1.0 | 0.00 | 0.00 | 0.00 | 48 | 1011.9 |
| 20260902171826 | 95 | 266 | 3.0 | 6.0 | 0.00 | 0.00 | 0.00 | 49 | 1012.0 |
| 20260902171321 | 94 | 184 | 1.0 | 2.0 | 0.00 | 0.00 | 0.00 | 50 | 1012.0 |
| 20260902170818 | 94 | 131 | 0.0 | 1.0 | 0.00 | 0.00 | 0.00 | 51 | 1012.2 |
| 20260902170312 | 94 | 153 | 3.0 | 3.0 | 0.00 | 0.00 | 0.00 | 51 | 1012.1 |
| 20260902165803 | 94 | 223 | 2.0 | 3.0 | 0.00 | 0.00 | 0.00 | 51 | 1011.9 |
| 20260902165301 | 93 | 126 | 1.0 | 1.0 | 0.00 | 0.00 | 0.00 | 51 | 1012.4 |
| 20260902164750 | 93 | 229 | 3.0 | 3.0 | 0.00 | 0.00 | 0.00 | 52 | 1012.2 |
| 20260902164251 | 93 | 184 | 2.0 | 3.0 | 0.00 | 0.00 | 0.00 | 53 | 1012.4 |
| 20260902163745 | 92 | 295 | 4.0 | 6.0 | 0.00 | 0.00 | 0.00 | 53 | 1012.4 |
| 20260902163239 | 93 | 31 | 2.0 | 2.0 | 0.00 | 0.00 | 0.00 | 53 | 1012.4 |
| 20260902162738 | 93 | 146 | 2.0 | 3.0 | 0.00 | 0.00 | 0.00 | 53 | 1012.4 |
| 20260902162233 | 92 | 159 | 3.0 | 5.0 | 0.00 | 0.00 | 0.00 | 54 | 1012.4 |
| 20260902161728 | 92 | 109 | 3.0 | 3.0 | 0.00 | 0.00 | 0.00 | 54 | 1012.7 |
| 20260902161223 | 93 | 72 | 1.0 | 2.0 | 0.00 | 0.00 | 0.00 | 54 | 1012.6 |
| 20260902160720 | 93 | 158 | 0.0 | 1.0 | 0.00 | 0.00 | 0.00 | 54 | 1012.7 |
| 20260902160214 | 92 | 125 | 1.0 | 1.0 | 0.00 | 0.00 | 0.00 | 55 | 1012.8 |
| 20260902155712 | 92 | 107 | 3.0 | 6.0 | 0.00 | 0.00 | 0.00 | 55 | 1012.6 |
| 20260902155211 | 92 | 168 | 2.0 | 3.0 | 0.00 | 0.00 | 0.00 | 55 | 1012.8 |
| 20260902154706 | 92 | 195 | 4.0 | 6.0 | 0.00 | 0.00 | 0.00 | 54 | 1012.7 |
| 20260902154201 | 92 | 217 | 2.0 | 5.0 | 0.00 | 0.00 | 0.00 | 56 | 1012.8 |
| 20260902153700 | 91 | 108 | 3.0 | 3.0 | 0.00 | 0.00 | 0.00 | 56 | 1012.4 |
| 20260902153155 | 91 | 92 | 1.0 | 1.0 | 0.00 | 0.00 | 0.00 | 57 | 1012.6 |
| 20260902152651 | 91 | 156 | 3.0 | 3.0 | 0.00 | 0.00 | 0.00 | 57 | 1012.7 |
| 20260902152147 | 91 | 160 | 3.0 | 3.0 | 0.00 | 0.00 | 0.00 | 57 | 1012.4 |
| 20260902151642 | 90 | 127 | 3.0 | 3.0 | 0.00 | 0.00 | 0.00 | 59 | 1012.7 |
| 20260902151137 | 90 | 116 | 2.0 | 2.0 | 0.00 | 0.00 | 0.00 | 60 | 1012.4 |
| 20260902150632 | 89 | 175 | 2.0 | 2.0 | 0.00 | 0.00 | 0.00 | 61 | 1012.5 |
| 20260902150127 | 89 | 126 | 3.0 | 3.0 | 0.00 | 0.00 | 0.00 | 63 | 1012.7 |
| 20260902145622 | 88 | 128 | 1.0 | 1.0 | 0.00 | 0.00 | 0.00 | 64 | 1012.5 |
| 20260902145121 | 87 | 149 | 1.0 | 1.0 | 0.00 | 0.00 | 0.00 | 65 | 1012.8 |
| 20260902144618 | 87 | 174 | 4.0 | 5.0 | 0.00 | 0.00 | 0.00 | 66 | 1012.6 |
| 20260902144112 | 86 | 156 | 1.0 | 1.0 | 0.00 | 0.00 | 0.00 | 67 | 1012.8 |
| 20260902143607 | 86 | 137 | 0.0 | 1.0 | 0.00 | 0.00 | 0.00 | 68 | 1012.7 |
| 20260902143102 | 85 | 142 | 1.0 | 2.0 | 0.00 | 0.00 | 0.00 | 69 | 1012.7 |
| 20260902142558 | 84 | 165 | 1.0 | 1.0 | 0.00 | 0.00 | 0.00 | 71 | 1012.7 |
| 20260902142053 | 84 | 136 | 1.0 | 1.0 | 0.00 | 0.00 | 0.00 | 72 | 1012.8 |
| 20260902141548 | 83 | 156 | 2.0 | 3.0 | 0.00 | 0.00 | 0.00 | 72 | 1012.7 |
| 20260902141043 | 83 | 134 | 1.0 | 1.0 | 0.00 | 0.00 | 0.00 | 73 | 1012.8 |
| 20260902140538 | 83 | 132 | 2.0 | 2.0 | 0.00 | 0.00 | 0.00 | 74 | 1012.7 |
| 20260902140034 | 82 | 137 | 1.0 | 1.0 | 0.00 | 0.00 | 0.00 | 74 | 1012.6 |
| 20260902135533 | 82 | 110 | 0.0 | 1.0 | 0.00 | 0.00 | 0.00 | 73 | 1012.7 |
| 20260902135028 | 83 | 142 | 2.0 | 2.0 | 0.00 | 0.00 | 0.00 | 71 | 1012.8 |
| 20260902134523 | 84 | 133 | 1.0 | 1.0 | 0.00 | 0.00 | 0.00 | 70 | 1013.0 |
| 20260902134017 | 84 | 128 | 0.0 | 0.0 | 0.00 | 0.00 | 0.00 | 70 | 1012.9 |
| 20260902133512 | 84 | 128 | 0.0 | 1.0 | 0.00 | 0.00 | 0.00 | 71 | 1012.9 |
| 20260902133012 | 83 | 124 | 0.0 | 0.0 | 0.00 | 0.00 | 0.00 | 72 | 1012.6 |
| 20260902132507 | 82 | 124 | 0.0 | 0.0 | 0.00 | 0.00 | 0.00 | 73 | 1013.0 |
| 20260902132002 | 81 | 123 | 0.0 | 0.0 | 0.00 | 0.00 | 0.00 | 76 | 1013.0 |
| 20260902131459 | 80 | 121 | 0.0 | 0.0 | 0.00 | 0.00 | 0.00 | 77 | 1013.0 |
| 20260902130958 | 78 | 119 | 0.0 | 0.0 | 0.00 | 0.00 | 0.00 | 82 | 1012.8 |
| 20260902130454 | 76 | 121 | 0.0 | 0.0 | 0.00 | 0.00 | 0.00 | 86 | 1012.8 |
| 20260902125949 | 75 | 122 | 0.0 | 0.0 | 0.00 | 0.00 | 0.00 | 87 | 1012.9 |
| 20260902125445 | 74 | 115 | 0.0 | 0.0 | 0.00 | 0.00 | 0.00 | 89 | 1013.2 |
| 20260902124941 | 73 | 113 | 0.0 | 1.0 | 0.00 | 0.00 | 0.00 | 91 | 1013.2 |
| 20260902124437 | 71 | 113 | 1.0 | 1.0 | 0.00 | 0.00 | 0.00 | 95 | 1013.0 |
| 20260902123932 | 69 | 116 | 0.0 | 1.0 | 0.00 | 0.00 | 0.00 | 98 | 1012.8 |
| 20260902123429 | 69 | 115 | 0.0 | 1.0 | 0.00 | 0.00 | 0.00 | 99 | 1012.9 |
| 20260902122926 | 68 | 115 | 0.0 | 0.0 | 0.00 | 0.00 | 0.00 | 99 | 1012.8 |
| 20260902122422 | 68 | 120 | 0.0 | 0.0 | 0.00 | 0.00 | 0.00 | 99 | 1012.8 |
| 20260902121917 | 67 | 119 | 0.0 | 0.0 | 0.00 | 0.00 | 0.00 | 99 | 1012.7 |
| 20260902121412 | 67 | 122 | 0.0 | 0.0 | 0.00 | 0.00 | 0.00 | 99 | 1012.7 |
| 20260902120907 | 67 | 125 | 0.0 | 0.0 | 0.00 | 0.00 | 0.00 | 99 | 1012.5 |
| 20260902120404 | 67 | 125 | 0.0 | 0.0 | 0.00 | 0.00 | 0.00 | 99 | 1012.6 |
| 20260902115903 | 67 | 125 | 0.0 | 0.0 | 0.00 | 0.00 | 0.00 | 99 | 1012.5 |
| 20260902115359 | 67 | 127 | 0.0 | 0.0 | 0.00 | 0.00 | 0.00 | 99 | 1012.4 |
| 20260902114856 | 67 | 125 | 0.0 | 0.0 | 0.00 | 0.00 | 0.00 | 99 | 1012.3 |
| 20260902114352 | 66 | 123 | 0.0 | 0.0 | 0.00 | 0.00 | 0.00 | 99 | 1012.3 |
| 20260902113851 | 67 | 122 | 0.0 | 0.0 | 0.00 | 0.00 | 0.00 | 99 | 1012.3 |
| 20260902113347 | 67 | 122 | 0.0 | 0.0 | 0.00 | 0.00 | 0.00 | 99 | 1012.2 |
| 20260902112846 | 67 | 121 | 0.0 | 0.0 | 0.00 | 0.00 | 0.00 | 99 | 1012.2 |
| 20260902112343 | 67 | 122 | 0.0 | 0.0 | 0.00 | 0.00 | 0.00 | 99 | 1012.2 |
| 20260902111838 | 67 | 122 | 0.0 | 0.0 | 0.00 | 0.00 | 0.00 | 99 | 1012.2 |
| 20260902111335 | 67 | 122 | 0.0 | 0.0 | 0.00 | 0.00 | 0.00 | 99 | 1011.9 |
| 20260902110830 | 67 | 122 | 0.0 | 0.0 | 0.00 | 0.00 | 0.00 | 99 | 1012.0 |
| 20260902110326 | 67 | 122 | 0.0 | 0.0 | 0.00 | 0.00 | 0.00 | 99 | 1011.9 |
| 20260902105826 | 67 | 122 | 0.0 | 0.0 | 0.00 | 0.00 | 0.00 | 99 | 1012.0 |
| 20260902105321 | 67 | 122 | 0.0 | 0.0 | 0.00 | 0.00 | 0.00 | 99 | 1011.9 |
| 20260902104816 | 67 | 124 | 0.0 | 0.0 | 0.00 | 0.00 | 0.00 | 99 | 1012.0 |
| 20260902104312 | 68 | 124 | 0.0 | 0.0 | 0.00 | 0.00 | 0.00 | 99 | 1011.9 |
| 20260902103812 | 67 | 124 | 0.0 | 0.0 | 0.00 | 0.00 | 0.00 | 99 | 1011.7 |
| 20260902103307 | 67 | 125 | 0.0 | 0.0 | 0.00 | 0.00 | 0.00 | 99 | 1012.0 |
| 20260902102802 | 67 | 127 | 0.0 | 0.0 | 0.00 | 0.00 | 0.00 | 99 | 1012.1 |
| 20260902102300 | 67 | 128 | 0.0 | 0.0 | 0.00 | 0.00 | 0.00 | 99 | 1011.9 |
| 20260902101755 | 67 | 125 | 0.0 | 0.0 | 0.00 | 0.00 | 0.00 | 99 | 1012.0 |
| 20260902101250 | 67 | 127 | 0.0 | 0.0 | 0.00 | 0.00 | 0.00 | 99 | 1011.9 |
| 20260902100749 | 67 | 125 | 0.0 | 0.0 | 0.00 | 0.00 | 0.00 | 98 | 1012.2 |
| 20260902100249 | 67 | 124 | 0.0 | 0.0 | 0.00 | 0.00 | 0.00 | 98 | 1012.0 |
| 20260902095743 | 67 | 121 | 0.0 | 0.0 | 0.00 | 0.00 | 0.00 | 98 | 1011.7 |
| 20260902095237 | 67 | 122 | 0.0 | 0.0 | 0.00 | 0.00 | 0.00 | 97 | 1011.8 |
| 20260902094732 | 68 | 122 | 0.0 | 0.0 | 0.00 | 0.00 | 0.00 | 97 | 1012.0 |
| 20260902094229 | 68 | 123 | 0.0 | 0.0 | 0.00 | 0.00 | 0.00 | 97 | 1012.0 |
| 20260902093727 | 68 | 122 | 0.0 | 0.0 | 0.00 | 0.00 | 0.00 | 97 | 1011.8 |
| 20260902093223 | 68 | 122 | 0.0 | 0.0 | 0.00 | 0.00 | 0.00 | 97 | 1011.8 |
| 20260902092718 | 68 | 123 | 0.0 | 0.0 | 0.00 | 0.00 | 0.00 | 97 | 1011.7 |
| 20260902092213 | 68 | 124 | 0.0 | 0.0 | 0.00 | 0.00 | 0.00 | 97 | 1012.0 |
| 20260902091712 | 68 | 124 | 0.0 | 0.0 | 0.00 | 0.00 | 0.00 | 96 | 1011.5 |
| 20260902091209 | 68 | 122 | 0.0 | 0.0 | 0.00 | 0.00 | 0.00 | 96 | 1011.7 |
| 20260902090705 | 68 | 123 | 0.0 | 0.0 | 0.00 | 0.00 | 0.00 | 96 | 1012.0 |
| 20260902090203 | 68 | 124 | 0.0 | 0.0 | 0.00 | 0.00 | 0.00 | 96 | 1011.8 |
| 20260902085658 | 69 | 123 | 0.0 | 0.0 | 0.00 | 0.00 | 0.00 | 95 | 1011.5 |
| 20260902085153 | 69 | 122 | 0.0 | 0.0 | 0.00 | 0.00 | 0.00 | 95 | 1011.8 |
| 20260902084649 | 69 | 125 | 0.0 | 0.0 | 0.00 | 0.00 | 0.00 | 95 | 1011.5 |
| 20260902084145 | 69 | 125 | 0.0 | 0.0 | 0.00 | 0.00 | 0.00 | 95 | 1011.7 |
| 20260902083640 | 69 | 125 | 0.0 | 0.0 | 0.00 | 0.00 | 0.00 | 95 | 1011.8 |
| 20260902083139 | 69 | 125 | 0.0 | 0.0 | 0.00 | 0.00 | 0.00 | 95 | 1011.7 |
| 20260902082635 | 69 | 126 | 0.0 | 0.0 | 0.00 | 0.00 | 0.00 | 95 | 1011.7 |
| 20260902082132 | 69 | 128 | 0.0 | 0.0 | 0.00 | 0.00 | 0.00 | 95 | 1011.8 |
| 20260902081628 | 69 | 125 | 0.0 | 0.0 | 0.00 | 0.00 | 0.00 | 95 | 1011.5 |
| 20260902081127 | 69 | 127 | 0.0 | 0.0 | 0.00 | 0.00 | 0.00 | 95 | 1011.5 |
| 20260902080623 | 69 | 126 | 0.0 | 0.0 | 0.00 | 0.00 | 0.00 | 94 | 1011.5 |
| 20260902080119 | 69 | 126 | 0.0 | 0.0 | 0.00 | 0.00 | 0.00 | 94 | 1011.4 |
| 20260902075619 | 69 | 126 | 0.0 | 0.0 | 0.00 | 0.00 | 0.00 | 94 | 1011.7 |
| 20260902075115 | 69 | 128 | 0.0 | 0.0 | 0.00 | 0.00 | 0.00 | 94 | 1011.5 |
| 20260902074610 | 69 | 124 | 0.0 | 0.0 | 0.00 | 0.00 | 0.00 | 93 | 1011.8 |
| 20260902074105 | 69 | 124 | 0.0 | 0.0 | 0.00 | 0.00 | 0.00 | 93 | 1011.7 |
| 20260902073600 | 69 | 123 | 0.0 | 0.0 | 0.00 | 0.00 | 0.00 | 92 | 1011.7 |
| 20260902073057 | 69 | 123 | 0.0 | 0.0 | 0.00 | 0.00 | 0.00 | 92 | 1011.5 |
| 20260902072552 | 70 | 123 | 0.0 | 0.0 | 0.00 | 0.00 | 0.00 | 92 | 1011.5 |
| 20260902072049 | 70 | 124 | 0.0 | 0.0 | 0.00 | 0.00 | 0.00 | 92 | 1011.8 |
| 20260902071548 | 70 | 124 | 0.0 | 0.0 | 0.00 | 0.00 | 0.00 | 91 | 1011.5 |
| 20260902071045 | 70 | 124 | 0.0 | 0.0 | 0.00 | 0.00 | 0.00 | 91 | 1011.8 |
| 20260902070540 | 70 | 124 | 0.0 | 0.0 | 0.00 | 0.00 | 0.00 | 91 | 1011.7 |
| 20260902070035 | 70 | 124 | 0.0 | 0.0 | 0.00 | 0.00 | 0.00 | 90 | 1011.5 |
| 20260902065529 | 70 | 124 | 0.0 | 0.0 | 0.00 | 0.00 | 0.00 | 90 | 1011.7 |
| 20260902065025 | 71 | 124 | 0.0 | 0.0 | 0.00 | 0.00 | 0.00 | 90 | 1011.4 |
| 20260902064520 | 71 | 124 | 0.0 | 0.0 | 0.00 | 0.00 | 0.00 | 89 | 1011.7 |
| 20260902064015 | 71 | 124 | 0.0 | 0.0 | 0.00 | 0.00 | 0.00 | 88 | 1011.7 |
| 20260902063515 | 71 | 124 | 0.0 | 0.0 | 0.00 | 0.00 | 0.00 | 88 | 1011.7 |
| 20260902063010 | 71 | 124 | 0.0 | 0.0 | 0.00 | 0.00 | 0.00 | 88 | 1011.8 |
| 20260902062508 | 72 | 124 | 0.0 | 0.0 | 0.00 | 0.00 | 0.00 | 87 | 1011.5 |
| 20260902062004 | 72 | 124 | 0.0 | 0.0 | 0.00 | 0.00 | 0.00 | 87 | 1011.5 |
| 20260902061459 | 72 | 127 | 0.0 | 0.0 | 0.00 | 0.00 | 0.00 | 87 | 1011.5 |
| 20260902060955 | 72 | 131 | 0.0 | 0.0 | 0.00 | 0.00 | 0.00 | 87 | 1011.8 |
| 20260902060451 | 72 | 130 | 0.0 | 0.0 | 0.00 | 0.00 | 0.00 | 87 | 1011.5 |
| 20260902055947 | 72 | 128 | 0.0 | 0.0 | 0.00 | 0.00 | 0.00 | 86 | 1011.3 |
| 20260902055443 | 72 | 128 | 0.0 | 0.0 | 0.00 | 0.00 | 0.00 | 86 | 1011.5 |
| 20260902054938 | 72 | 126 | 0.0 | 0.0 | 0.00 | 0.00 | 0.00 | 86 | 1011.4 |
| 20260902054433 | 72 | 126 | 0.0 | 0.0 | 0.00 | 0.00 | 0.00 | 85 | 1011.3 |
| 20260902053928 | 73 | 123 | 0.0 | 0.0 | 0.00 | 0.00 | 0.00 | 85 | 1011.5 |
| 20260902053423 | 73 | 125 | 0.0 | 0.0 | 0.00 | 0.00 | 0.00 | 84 | 1011.4 |
| 20260902052922 | 73 | 126 | 0.0 | 0.0 | 0.00 | 0.00 | 0.00 | 84 | 1011.3 |
| 20260902052418 | 73 | 126 | 0.0 | 0.0 | 0.00 | 0.00 | 0.00 | 84 | 1011.3 |
| 20260902051914 | 73 | 127 | 0.0 | 0.0 | 0.00 | 0.00 | 0.00 | 83 | 1011.5 |
| 20260902051413 | 73 | 125 | 0.0 | 0.0 | 0.00 | 0.00 | 0.00 | 83 | 1011.4 |
| 20260902050912 | 74 | 126 | 0.0 | 0.0 | 0.00 | 0.00 | 0.00 | 83 | 1011.3 |
| 20260902050412 | 74 | 130 | 0.0 | 0.0 | 0.00 | 0.00 | 0.00 | 83 | 1011.3 |
| 20260902045907 | 74 | 132 | 0.0 | 0.0 | 0.00 | 0.00 | 0.00 | 82 | 1011.2 |
| 20260902045403 | 74 | 129 | 0.0 | 0.0 | 0.00 | 0.00 | 0.00 | 82 | 1011.0 |
| 20260902044859 | 74 | 131 | 0.0 | 0.0 | 0.00 | 0.00 | 0.00 | 83 | 1011.2 |
| 20260902044354 | 74 | 128 | 0.0 | 0.0 | 0.00 | 0.00 | 0.00 | 83 | 1011.2 |
| 20260902043854 | 74 | 134 | 0.0 | 1.0 | 0.00 | 0.00 | 0.00 | 83 | 1011.0 |
| 20260902043350 | 73 | 130 | 0.0 | 0.0 | 0.00 | 0.00 | 0.00 | 83 | 1010.9 |
| 20260902042845 | 73 | 128 | 0.0 | 0.0 | 0.00 | 0.00 | 0.00 | 83 | 1011.1 |
| 20260902042344 | 73 | 135 | 0.0 | 0.0 | 0.00 | 0.00 | 0.00 | 84 | 1011.0 |
| 20260902041840 | 73 | 129 | 0.0 | 0.0 | 0.00 | 0.00 | 0.00 | 84 | 1011.1 |
| 20260902041339 | 73 | 129 | 0.0 | 0.0 | 0.00 | 0.00 | 0.00 | 85 | 1010.9 |
| 20260902040838 | 73 | 130 | 0.0 | 0.0 | 0.00 | 0.00 | 0.00 | 85 | 1010.9 |
| 20260902040334 | 73 | 127 | 0.0 | 0.0 | 0.00 | 0.00 | 0.00 | 85 | 1010.9 |
| 20260902035833 | 74 | 125 | 0.0 | 0.0 | 0.00 | 0.00 | 0.00 | 85 | 1010.6 |
| 20260902035329 | 74 | 125 | 0.0 | 0.0 | 0.00 | 0.00 | 0.00 | 84 | 1010.8 |
| 20260902034827 | 74 | 125 | 0.0 | 0.0 | 0.00 | 0.00 | 0.00 | 84 | 1011.0 |
| 20260902034322 | 74 | 127 | 0.0 | 0.0 | 0.00 | 0.00 | 0.00 | 84 | 1010.9 |
| 20260902033819 | 75 | 123 | 0.0 | 0.0 | 0.00 | 0.00 | 0.00 | 83 | 1011.1 |
| 20260902033316 | 75 | 135 | 0.0 | 1.0 | 0.00 | 0.00 | 0.00 | 83 | 1010.8 |
| 20260902032814 | 75 | 123 | 0.0 | 0.0 | 0.00 | 0.00 | 0.00 | 82 | 1011.0 |
| 20260902032309 | 75 | 127 | 0.0 | 0.0 | 0.00 | 0.00 | 0.00 | 82 | 1010.9 |
| 20260902031809 | 76 | 137 | 1.0 | 1.0 | 0.00 | 0.00 | 0.00 | 83 | 1010.9 |
| 20260902031305 | 75 | 124 | 1.0 | 2.0 | 0.00 | 0.00 | 0.00 | 80 | 1010.8 |
| 20260902030801 | 75 | 130 | 0.0 | 0.0 | 0.00 | 0.00 | 0.00 | 80 | 1010.8 |
| 20260902030255 | 75 | 130 | 0.0 | 0.0 | 0.00 | 0.00 | 0.00 | 79 | 1010.6 |
| 20260902025754 | 76 | 130 | 0.0 | 0.0 | 0.00 | 0.00 | 0.00 | 79 | 1010.6 |
| 20260902025249 | 76 | 130 | 0.0 | 0.0 | 0.00 | 0.00 | 0.00 | 79 | 1010.4 |
| 20260902024744 | 76 | 130 | 0.0 | 0.0 | 0.00 | 0.00 | 0.00 | 79 | 1010.5 |
| 20260902024240 | 76 | 130 | 0.0 | 0.0 | 0.00 | 0.00 | 0.00 | 79 | 1010.3 |
| 20260902023736 | 77 | 130 | 0.0 | 0.0 | 0.00 | 0.00 | 0.00 | 78 | 1010.2 |
| 20260902023231 | 77 | 130 | 0.0 | 0.0 | 0.00 | 0.00 | 0.00 | 78 | 1010.2 |
| 20260902022730 | 77 | 130 | 0.0 | 0.0 | 0.00 | 0.00 | 0.00 | 77 | 1010.2 |
| 20260902022226 | 77 | 130 | 0.0 | 0.0 | 0.00 | 0.00 | 0.00 | 76 | 1010.2 |
| 20260902021721 | 78 | 130 | 0.0 | 0.0 | 0.00 | 0.00 | 0.00 | 76 | 1010.3 |
| 20260902021221 | 78 | 130 | 0.0 | 0.0 | 0.00 | 0.00 | 0.00 | 75 | 1010.0 |
| 20260902020717 | 78 | 130 | 0.0 | 0.0 | 0.00 | 0.00 | 0.00 | 75 | 1009.8 |
| 20260902020213 | 78 | 131 | 0.0 | 0.0 | 0.00 | 0.00 | 0.00 | 75 | 1010.0 |
| 20260902015708 | 79 | 130 | 0.0 | 0.0 | 0.00 | 0.00 | 0.00 | 74 | 1010.0 |
| 20260902015205 | 79 | 130 | 0.0 | 0.0 | 0.00 | 0.00 | 0.00 | 73 | 1009.8 |
| 20260902014701 | 80 | 130 | 0.0 | 0.0 | 0.00 | 0.00 | 0.00 | 72 | 1010.0 |
| 20260902014156 | 80 | 131 | 0.0 | 0.0 | 0.00 | 0.00 | 0.00 | 72 | 1009.7 |
| 20260902013655 | 80 | 131 | 0.0 | 0.0 | 0.00 | 0.00 | 0.00 | 71 | 1009.7 |
| 20260902013151 | 80 | 131 | 0.0 | 0.0 | 0.00 | 0.00 | 0.00 | 70 | 1009.8 |
| 20260902012646 | 81 | 131 | 0.0 | 0.0 | 0.00 | 0.00 | 0.00 | 70 | 1009.7 |
| 20260902012142 | 81 | 131 | 0.0 | 0.0 | 0.00 | 0.00 | 0.00 | 69 | 1009.8 |
| 20260902011637 | 81 | 131 | 0.0 | 0.0 | 0.00 | 0.00 | 0.00 | 68 | 1009.8 |
| 20260902011136 | 82 | 131 | 0.0 | 0.0 | 0.00 | 0.00 | 0.00 | 68 | 1009.8 |
| 20260902010636 | 82 | 131 | 0.0 | 0.0 | 0.00 | 0.00 | 0.00 | 67 | 1009.5 |
| 20260902010132 | 83 | 131 | 0.0 | 0.0 | 0.00 | 0.00 | 0.00 | 66 | 1009.6 |
| 20260902005630 | 83 | 131 | 0.0 | 0.0 | 0.00 | 0.00 | 0.00 | 65 | 1009.7 |
| 20260902005126 | 84 | 131 | 0.0 | 0.0 | 0.00 | 0.00 | 0.00 | 64 | 1009.7 |
| 20260902004625 | 84 | 131 | 0.0 | 0.0 | 0.00 | 0.00 | 0.00 | 63 | 1009.8 |
| 20260902004120 | 85 | 131 | 0.0 | 0.0 | 0.00 | 0.00 | 0.00 | 62 | 1009.6 |
| 20260902003615 | 85 | 131 | 0.0 | 0.0 | 0.00 | 0.00 | 0.00 | 61 | 1009.7 |
| 20260902003111 | 86 | 130 | 0.0 | 0.0 | 0.00 | 0.00 | 0.00 | 61 | 1009.8 |
| 20260902002606 | 87 | 136 | 1.0 | 1.0 | 0.00 | 0.00 | 0.00 | 59 | 1009.7 |
| 20260902002102 | 87 | 141 | 1.0 | 1.0 | 0.00 | 0.00 | 0.00 | 58 | 1009.9 |
| 20260902001556 | 88 | 132 | 0.0 | 0.0 | 0.00 | 0.00 | 0.00 | 57 | 1009.7 |
| 20260902001051 | 89 | 129 | 0.0 | 0.0 | 0.00 | 0.00 | 0.00 | 55 | 1010.0 |
| 20260902000546 | 90 | 140 | 1.0 | 1.0 | 0.00 | 0.00 | 0.00 | 54 | 1009.8 |
| 20260902000042 | 91 | 136 | 0.0 | 0.0 | 0.00 | 0.00 | 0.00 | 51 | 1009.8 |
| 20260901235541 | 92 | 177 | 2.0 | 2.0 | 0.00 | 0.00 | 0.00 | 48 | 1009.9 |
| 20260901235037 | 93 | 142 | 1.0 | 1.0 | 0.00 | 0.00 | 0.00 | 48 | 1009.7 |
| 20260901234536 | 95 | 134 | 0.0 | 1.0 | 0.00 | 0.00 | 0.00 | 45 | 1009.9 |
| 20260901234032 | 95 | 130 | 1.0 | 1.0 | 0.00 | 0.00 | 0.00 | 43 | 1010.0 |
| 20260901233531 | 96 | 155 | 1.0 | 1.0 | 0.00 | 0.00 | 0.00 | 43 | 1009.8 |
| 20260901233027 | 97 | 132 | 0.0 | 1.0 | 0.00 | 0.00 | 0.00 | 41 | 1010.0 |
| 20260901232523 | 98 | 112 | 1.0 | 1.0 | 0.00 | 0.00 | 0.00 | 40 | 1009.8 |
| 20260901232018 | 98 | 108 | 0.0 | 0.0 | 0.00 | 0.00 | 0.00 | 40 | 1009.9 |
| 20260901231514 | 99 | 132 | 1.0 | 1.0 | 0.00 | 0.00 | 0.00 | 39 | 1010.0 |
| 20260901231011 | 99 | 121 | 0.0 | 0.0 | 0.00 | 0.00 | 0.00 | 39 | 1009.9 |